User: anonymous   Login
Location: Deuil
(48.9767°N, 2.3272°E)
Time: 12:00:54
(UTC+00:00)
Language:

Cosmos 389 Rocket - Orbit

View from above orbital plane
View from above orbital plane
View from above satellite
View from above satellite

Ground track
Ground track

The orbit data is extracted from the following two-line orbital elements,

1 04814U 70113B   22019.93158473  .00005784  00000-0  15313-3 0  9993
2 04814  81.1409 177.3814 0023412  66.5380 293.8318 15.37886847792417
Epoch (UTC): 19 January 2022 22:21:28
Eccentricity: 0.0023412
inclination: 81.1409°
perigee height: 436 km
apogee height: 468 km
right ascension of ascending node: 177.3814°
argument of perigee: 66.5380°
revolutions per day: 15.37886847
mean anomaly at epoch: 293.8318°
orbit number at epoch: 79241

The dashed part of the orbit path shows where the satellite is in the earth's shadow,  

DLR